#timestamp,LO_Frequency,Hit 
1499558415.7,286047054.7,N
1499558435.6,286047054.3,N
1499558455.4,286047054.2,N
1499558475.2,286047055.6,N
1499558495.1,286047055.5,N
1499558496.0,286047055.5,N
1499558515.8,286047055.9,N
1499558535.6,286047058.4,N
1499558555.4,286047056.4,N
1499558575.3,286047058.6,N
1499558595.1,286047058.3,N
1499558615.8,286047057.8,N
1499558635.7,286047057.9,N
1499558655.5,286047057.9,N
1499558675.3,286047057.9,N
1499558695.2,286047058.5,N
1499558715.9,286047057.5,N
1499558735.7,286047059.2,N
1499558755.6,286047059.2,N
1499558775.4,286047059.7,N
1499558795.2,286047059.1,N
1499558815.1,286047061.8,N
1499558816.0,286047061.8,N
1499558835.8,286047062.8,N
1499558855.6,286047064.0,N
1499558875.5,286047064.1,N
1499558895.3,286047064.1,N
1499558915.1,286047064.3,N
1499558935.8,286047065.2,N
1499558955.7,286047065.1,N
1499558975.5,286047062.2,N
1499558995.3,286047063.8,N
1499559015.2,286047064.6,N
1499559035.9,286047065.0,N
1499559055.7,286047064.0,N
1499559075.6,286047066.3,N
1499559095.4,286047064.3,N
1499559115.2,286047064.8,N
1499559135.1,286047064.2,N
1499559136.0,286047064.2,N
1499559155.8,286047064.3,N
1499559175.6,286047064.2,N
1499559195.5,286047066.4,N
1499559215.3,286047064.1,N
1499559235.1,286047062.1,N
1499559255.8,286047064.9,N
1499559275.7,286047062.1,N
1499559295.5,286047063.3,N
1499559315.3,286047062.3,N
1499559335.2,286047065.2,N
1499559355.9,286047062.2,N
1499559375.7,286047062.9,N
1499559395.6,286047063.8,N
1499559415.4,286047068.3,N
1499559435.2,286047066.3,N
1499559455.1,286047063.8,N
1499559456.0,286047063.8,N
1499559475.8,286047065.7,N
1499559495.6,286047067.7,N
1499559515.5,286047067.9,N
1499559535.3,286047068.2,Y
1499559555.1,286047000.4,N
1499559575.9,286047000.5,N
1499559595.7,286046999.6,N
1499559615.5,286046998.7,N
1499559635.4,286046997.0,N
1499559655.2,286046997.9,N
1499559675.0,286046997.9,N
1499559675.9,286046997.9,N
1499559695.8,286046998.7,N
1499559715.6,286046998.1,N
1499559735.4,286047002.3,N
1499559755.3,286047000.2,N
1499559775.1,286047000.6,N
1499559776.0,286047000.6,N
1499559795.8,286046998.2,N
1499559815.6,286046999.3,N
1499559835.5,286046998.9,N
1499559855.3,286047000.5,N
1499559875.1,286047000.9,N
1499559895.9,286047000.2,N
1499559915.7,286047000.1,N
1499559935.5,286046999.8,N
1499559955.4,286047003.6,N
1499559975.2,286047003.8,N
1499559995.0,286047003.6,N
1499559995.9,286047003.6,N
1499560015.8,286047003.7,N
1499560035.6,286047005.8,N
1499560055.4,286047004.7,N
1499560075.3,286047005.5,N
1499560095.1,286047006.5,N
1499560096.0,286047006.5,N
1499560115.8,286047009.0,N
1499560135.7,286047006.8,N
1499560155.5,286047007.5,N
1499560175.3,286047007.2,N
1499560195.2,286047007.6,N
1499560215.9,286047005.3,N
1499560235.7,286047005.2,N
1499560255.5,286047006.9,N
1499560275.4,286047004.6,N
1499560295.2,286047005.5,N
1499560315.0,286047005.2,N
1499560315.9,286047005.2,N
1499560335.8,286047007.1,N
1499560355.6,286047006.3,N
1499560375.4,286047010.8,N
1499560395.3,286047008.1,N
1499560415.1,286047010.8,N
1499560435.8,286047008.7,N
1499560455.7,286047005.7,N
1499560475.5,286047003.3,N
1499560495.3,286047005.4,N
1499560515.2,286047003.0,N
1499560535.9,286047003.1,N
1499560555.7,286047002.9,N
1499560575.6,286047005.9,N
1499560595.4,286047003.3,N
1499560615.2,286047003.0,N
1499560635.1,286047005.5,N
1499560636.0,286047005.5,N
1499560655.8,286047005.4,N
1499560675.6,286047005.7,N
1499560695.4,286047005.4,N
1499560715.3,286047007.1,N
1499560735.1,286047007.6,N
1499560755.8,286047007.3,N
1499560775.7,286047007.5,N
1499560795.5,286047007.3,N
1499560815.3,286047006.7,N
1499560835.2,286047009.2,N
1499560855.9,286047008.8,N
1499560875.7,286047008.3,N
1499560895.6,286047008.0,N
1499560915.4,286047010.5,N
1499560935.2,286047008.1,N
1499560955.1,286047008.2,N
1499560956.0,286047008.2,N
1499560975.8,286047008.9,N
1499560995.6,286047008.6,N
1499561015.5,286047007.9,N
1499561035.3,286047009.7,N
1499561055.1,286047009.4,N
1499561075.8,286047013.4,N
1499561095.7,286047013.4,N
1499561115.5,286047013.6,N
1499561135.3,286047012.6,N
1499561155.2,286047012.4,N
1499561175.0,286047009.3,N
1499561175.9,286047009.3,N
1499561195.7,286047009.6,N
1499561215.6,286047009.5,N
1499561235.4,286047009.5,N
1499561255.2,286047012.4,N
1499561275.1,286047015.5,N
1499561276.0,286047015.5,N
1499561295.8,286047015.3,N
1499561315.6,286047012.8,N
1499561335.5,286047015.2,N
1499561355.3,286047014.5,N
1499561375.1,286047015.3,N
1499561395.9,286047015.6,N
1499561415.7,286047014.4,N
1499561435.5,286047015.7,N
1499561455.3,286047014.1,N
1499561475.2,286047016.4,N
1499561495.0,286047016.8,N
1499561495.9,286047016.8,N
1499561515.7,286047017.2,N
1499561535.6,286047014.8,N
1499561555.4,286047015.2,N
1499561575.2,286047013.4,N
1499561595.1,286047013.3,N
1499561596.0,286047013.3,N
1499561615.8,286047015.2,N
1499561635.6,286047016.1,N
1499561655.5,286047015.9,N
1499561675.3,286047016.5,N
1499561695.1,286047016.9,N
1499561715.9,286047016.3,N
1499561735.7,286047014.7,N
1499561755.5,286047015.1,N
1499561775.4,286047015.2,N
1499561795.2,286047015.5,N
1499561815.0,286047013.3,N
1499561815.9,286047013.3,N
1499561835.8,286047012.7,N
1499561855.6,286047012.9,N
1499561875.4,286047017.0,N
1499561895.2,286047015.9,N
1499561915.1,286047017.1,N
1499561916.0,286047017.1,N
1499561935.8,286047014.1,N
1499561955.6,286047014.8,N
1499561975.5,286047015.4,N
1499561995.3,286047015.0,N
